DW3319 Weather Reports


Display with metric or nautical units.
time (UTC)temp
F
wind
direction
speed
MPH
gust
MPH
rain 1hr
in
rain 24hr
in
rain mn
in
humidity
%
barometer
mb
20260504081541 51 9 0.0 1.0 0.00 0.00 0.00 95 1017.2
20260504044546 55 119 0.0 2.0 0.00 0.00 0.00 92 1018.9
20260504043045 55 51 0.0 2.0 0.00 0.00 0.00 91 1019.1
20260504041544 56 265 0.0 1.0 0.00 0.00 0.00 91 1019.1
20260504034550 57 265 0.0 2.0 0.00 0.00 0.00 89 1019.2
20260504033037 58 0 0.0 2.0 0.00 0.00 0.00 88 1019.3
20260504031545 59 0 0.0 1.0 0.00 0.00 0.00 86 1019.3
20260504024544 62 0 0.0 1.0 0.00 0.00 0.00 81 1019.0
20260504023037 64 0 0.0 5.0 0.00 0.00 0.00 79 1018.9
20260504021549 63 245 2.0 4.0 0.00 0.00 0.00 76 1019.0
20260504020044 62 232 1.0 3.0 0.00 0.00 0.00 80 1018.8
20260504014543 63 0 0.0 1.0 0.00 0.00 0.00 79 1018.9
20260504013051 65 137 0.0 2.0 0.00 0.00 0.00 76 1018.8
20260504011541 66 137 0.0 2.0 0.00 0.00 0.00 73 1018.6
20260504010037 67 0 1.0 4.0 0.00 0.00 0.00 70 1018.4
20260504004537 69 0 1.0 5.0 0.00 0.00 0.00 70 1018.2
20260504003044 71 108 0.0 4.0 0.00 0.00 0.00 70 1018.2
20260504001559 73 0 0.0 3.0 0.00 0.00 0.00 64 1018.2
20260504000044 73 165 2.0 8.0 0.00 0.00 0.00 57 1018.2
20260503234543 74 169 5.0 11.0 0.00 0.00 0.00 53 1018.3
20260503233039 76 150 3.0 8.0 0.00 0.00 0.00 52 1018.5
20260503231537 76 171 5.0 11.0 0.00 0.00 0.00 50 1018.6
20260503230045 77 128 3.0 11.0 0.00 0.00 0.00 50 1018.5
20260503224544 78 153 3.0 6.0 0.00 0.00 0.00 43 1018.6
20260503223042 79 279 2.0 7.0 0.00 0.00 0.00 44 1018.8
20260503221545 78 291 2.0 4.0 0.00 0.00 0.00 46 1018.8
20260503220042 78 38 3.0 8.0 0.00 0.00 0.00 44 1018.7
20260503214539 78 93 2.0 6.0 0.00 0.00 0.00 46 1018.9
20260503213043 78 169 2.0 10.0 0.00 0.00 0.00 44 1019.1
20260503211549 78 163 3.0 9.0 0.00 0.00 0.00 46 1019.3
20260503210044 76 255 2.0 7.0 0.00 0.00 0.00 52 1019.6
20260503204553 77 205 1.0 7.0 0.00 0.00 0.00 47 1019.8
20260503203048 78 166 2.0 7.0 0.00 0.00 0.00 47 1020.1
20260503201541 78 146 1.0 8.0 0.00 0.00 0.00 47 1020.4
20260503200045 78 325 2.0 6.0 0.00 0.00 0.00 47 1020.6
20260503194546 78 9 2.0 6.0 0.00 0.00 0.00 45 1020.8
20260503193057 77 0 3.0 9.0 0.00 0.00 0.00 44 1021.1
20260503191545 77 151 4.0 11.0 0.00 0.00 0.00 44 1021.3
20260503190053 77 302 2.0 10.0 0.00 0.00 0.00 43 1021.5
20260503184541 77 137 2.0 9.0 0.00 0.00 0.00 49 1021.7
20260503183049 76 282 2.0 9.0 0.00 0.00 0.00 46 1021.9
20260503181539 76 175 4.0 13.0 0.00 0.00 0.00 50 1022.1
20260503180053 76 192 4.0 8.0 0.00 0.00 0.00 47 1022.3
20260503174541 76 153 4.0 10.0 0.00 0.00 0.00 48 1022.4
20260503173103 75 249 1.0 7.0 0.00 0.00 0.00 53 1022.7
20260503171549 75 323 2.0 7.0 0.00 0.00 0.00 47 1022.8